SCP
0 0 0 0 0 0 0 0 0 0 0 0 0 0 0 0 0 0 0 0 0 0 0 0 0 0 0 0 0 0 0 0 0 0 0 0 0 0 0 0 0 0 0 0
0 0 0 0 0 0 0 0 0 0 0 0 0 0 0 0 0 0 0 0 0 0 0 0 0 0 0 0 0 0 0 0 0 0 0 0 0 0 0 0 0 0 0 0
0 0 0 0 0 0 0 0 0 0 0 0 0 0 0 0 0 0 0 0 0 0 0 0 0 0 0 0 0 0 0 0 0 0 0 0 0 0 0 0 0 0 0 0
0 0 0 0 0 0 0 0 0 0 0 0 0 0 0 0 0 0 0 0 0 0 0 0 0 0 0 0 0 0 0 0 0 0 0 0 0 0 0 0 0 0 0 0
0 0 0 0 0 0 0 0 0 0 0 0 0 0 0 0 0 0 0 0 0 0 0 0 0 0 0 0 0 0 0 0 0 0 0 0 0 0 0 0 0 0 0 0
0 0 0 0 0 0 0 0 0 0 0 0 0 0 0 0 0 0 0 0 0 0 0 0 0 0 0 0 0 0 0 0 0 0 0 0 0 0 0 0 0 0 0 0
0 0 0 0 0 0 0 0 0 0 0 0 0 0 0 0 0 0 0 0 0 0 0 0 0 0 0 0 0 0 0 0 0 0 0 0 0 0 0 0 0 0 0 0
0 0 0 0 0 0 0 0 0 0 0 0 0 0 0 0 0 0 0 0 0 0 0 0 0 0 0 0 0 0 0 0 0 0 0 0 0 0 0 0 0 0 0 0
0 0 0 0 0 0 0 0 0 0 0 0 0 0 0 0 0 0 0 0 0 0 0 0 0 0 0 0 0 0 0 0 0 0 0 0 0 0 0 0 0 0 0 0
0 0 0 0 0 0 0 0 0 0 0 0 0 0 0 0 0 0 0 0 0 0 0 0 0 0 0 0 0 0 0 0 0 0 0 0 0 0 0 0 0 0 0 0
0 0 0 0 0 0 0 0 0 0 0 0 0 0 0 0 0 0 0 0 0 0 0 0 0 0 0 0 0 0 0 0 0 0 0 0 0 0 0 0 0 0 0 0
0 0 0 0 0 0 0 0 0 0 0 0 0 0 0 0 0 0 0 0 0 0 0 0 0 0 0 0 0 0 0 0 0 0 0 0 0 0 0 0 0 0 0 0
0 0 0 0 0 0 0 0 0 0 0 0 0 0 0 0 0 0 0 0 0 0 0 0 0 0 0 0 0 0 0 0 0 0 0 0 0 0 0 0 0 0 0 0
0 0 0 0 0 0 0 0 0 0 0 0 0 0 0 0 0 0 0 0 0 0 0 0 0 0 0 0 0 0 0 0 0 0 0 0 0 0 0 0 0 0 0 0
0 0 0 0 0 0 0 0 0 0 0 0 0 0 0 0 0 0 0 0 0 0 0 0 0 0 0 0 0 0 0 0 0 0 0 0 0 0 0 0 0 0 0 0
0 0 0 0 0 0 0 0 0 0 0 0 0 0 0 0 0 0 0 0 0 0 0 0 0 0 0 0 0 0 0 0 0 0 0 0 0 0 0 0 0 0 0 0
0 0 0 0 0 0 0 0 0 0 0 0 0 0 0 0 0 0 0 0 0 0 0 0 0 0 0 0 0 0 0 0 0 0 0 0 0 0 0 0 0 0 0 0
0 0 0 0 0 0 0 0 0 0 0 0 0 0 0 0 0 0 0 0 0 0 0 0 0 0 0 0 0 0 0 0 0 0 0 0 0 0 0 0 0 0 0 0
0 0 0 0 0 0 0 0 0 0 0 0 0 0 0 0 0 0 0 0 0 0 0 0 0 0 0 0 0 0 0 0 0 0 0 0 0 0 0 0 0 0 0 0
0 0 0 0 0 0 0 0 0 0 0 0 0 0 0 0 0 0 0 0 0 0 0 0 0 0 0 0 0 0 0 0 0 0 0 0 0 0 0 0 0 0 0 0
0 0 0 0 0 0 0 0 0 0 0 0 0 0 0 0 0 0 0 0 0 0 0 0 0 0 0 0 0 0 0 0 0 0 0 0 0 0 0 0 0 0 0 0
0 0 0 0 0 0 0 0 0 0 0 0 0 0 0 0 0 0 0 0 0 0 0 0 0 0 0 0 0 0 0 0 0 0 0 0 0 0 0 0 0 0 0 0
0 0 0 0 0 0 0 0 0 0 0 0 0 0 0 0 0 0 0 0 0 0 0 0 0 0 0 0 0 0 0 0 0 0 0 0 0 0 0 0 0 0 0 0
0 0 0 0 0 0 0 0 0 0 0 0 0 0 0 0 0 0 0 0 0 0 0 0 0 0 0 0 0 -0 0 0 0 0 0 0 0 -0 0 0 0 0 0 0
0 0 0 0 0 0 0 0 0 0 0 0 0 0 0 0 0 0 0 0 0 0 0 0 0 0 -0 0 0 0 0 0 0 0 0 0 0 0 0 0 0 0 0 0
0 0 0 0 0 0 0 0 0 0 0 0 0 0 0 0 0 0 0 0 0 0 0 0 0 0 -0 -0 -0 0 0 0 0 0 0 0 0 0 0 0 0 0 0 0
0 0 0 0 0 0 0 0 0 0 0 0 0 0 0 0 0 0 0 0 0 0 0 0 0 0 -0 -0 -0 -0 0 0 0 0 0 0 0 0 0 0 0 0 0 0
Wind_Speed_500mb
30 31 32 32 30 23 13 4 3 2 24 6 3 5 7 4 9 6 10 4 3 4 5 6 5 7 2 5 4 5 3 5 4 4 3 9 4 1 3 5 5 1 5 14
28 28 29 29 27 25 19 13 2 2 22 6 4 3 4 6 6 6 3 6 1 2 6 6 4 5 4 4 5 8 11 4 3 4 5 4 3 5 7 8 1 12 10 11
29 26 25 24 22 18 16 7 1 4 8 8 8 7 2 4 6 5 4 2 4 5 5 9 7 5 3 4 9 15 9 6 6 5 4 1 8 7 6 5 6 15 22 35
31 28 24 21 18 12 8 4 2 3 3 5 5 2 5 2 5 3 4 3 3 9 7 5 6 5 5 6 11 6 3 5 6 6 8 8 14 17 15 16 19 13 26 25
27 26 24 20 15 10 3 2 4 4 4 2 4 1 3 5 3 3 4 5 8 4 9 11 16 13 8 6 5 5 2 5 4 6 1 6 14 21 20 20 13 20 25 28
18 17 16 13 9 5 3 6 6 3 2 2 4 5 6 7 2 4 4 6 3 5 9 12 5 14 12 14 14 10 7 10 6 7 3 12 15 12 8 6 9 8 10 8
12 11 10 7 4 3 4 5 7 4 4 3 3 3 1 2 4 5 7 4 2 6 19 27 23 28 23 20 17 7 12 9 1 5 5 7 5 3 9 15 18 17 19 16
9 8 7 5 2 1 3 3 4 4 3 2 5 7 3 10 9 5 5 4 6 22 2 4 8 4 6 8 12 4 1 9 5 5 5 11 7 7 7 6 12 16 19 12
7 6 5 4 3 5 3 2 4 4 4 6 3 2 1 1 3 6 3 5 11 16 2 4 11 14 12 12 9 7 9 7 7 6 7 8 3 5 7 8 7 7 19 16
7 6 5 4 2 5 8 6 4 4 2 7 5 2 1 4 2 3 5 14 4 0 4 6 8 10 6 15 15 11 7 5 17 11 11 11 17 14 14 6 7 7 20 19
11 10 8 4 3 3 8 9 9 9 5 8 8 10 8 4 1 3 7 3 5 1 6 6 7 9 12 8 8 13 17 16 9 6 9 17 21 15 14 9 8 12 19 24
11 11 10 7 3 2 4 11 13 12 11 9 8 17 26 20 15 5 6 2 3 4 3 1 2 5 6 7 12 2 10 12 8 18 11 2 33 16 30 16 18 17 19 22
12 12 11 8 4 4 4 7 10 10 9 17 25 26 35 36 33 27 8 4 3 5 9 2 2 7 3 8 11 10 9 8 7 7 15 33 31 31 35 34 39 31 29 29
15 15 13 11 6 3 3 3 2 7 3 4 6 9 11 13 16 21 35 29 12 4 14 6 4 5 7 3 5 7 2 19 12 9 21 16 21 28 17 22 29 35 39 38
14 14 13 15 11 6 4 6 8 9 4 3 13 24 8 17 26 22 22 22 29 16 8 10 7 6 5 4 3 12 11 9 9 15 23 16 20 18 23 33 37 43 47 45
9 10 13 13 10 8 6 5 8 11 10 4 5 10 5 8 5 19 30 39 39 23 13 13 12 22 7 8 16 25 32 44 46 22 26 21 34 51 48 40 43 45 42 40
9 7 7 11 9 9 7 5 15 14 14 2 11 12 5 9 1 6 18 34 25 23 16 14 22 17 16 9 30 41 45 47 57 61 40 50 45 45 45 45 48 52 39 33
9 9 7 6 6 8 14 15 18 14 8 5 4 7 9 3 4 0 3 7 17 16 17 6 13 13 18 16 30 26 38 56 65 63 67 67 63 56 63 65 63 54 39 39
8 5 3 6 9 9 11 16 25 20 6 9 7 4 2 9 7 5 2 5 8 7 10 14 15 14 17 14 22 29 39 45 57 54 53 48 54 64 54 46 50 54 45 41
7 3 5 7 8 24 15 4 10 13 11 11 10 8 3 8 13 5 11 3 5 5 8 5 9 21 39 41 50 51 43 45 52 61 62 59 56 57 68 49 49 53 38 39
7 6 5 18 19 8 5 4 6 8 7 11 8 14 18 7 6 5 5 5 4 5 4 5 4 3 8 29 28 24 21 29 36 37 45 51 59 65 55 54 44 51 65 66
11 11 16 15 7 6 6 5 5 8 6 11 8 8 13 7 10 9 7 6 4 9 2 4 5 6 20 31 32 32 35 38 42 44 41 45 46 47 55 58 55 49 54 58
14 6 6 5 4 6 9 11 7 6 10 10 8 6 8 11 13 9 6 7 9 3 5 5 3 15 35 43 45 50 50 45 47 51 51 41 35 34 39 44 46 44 45 43
5 6 7 6 6 8 7 3 3 4 7 3 5 6 10 11 11 10 8 8 4 5 7 6 5 29 39 47 48 47 57 54 48 50 60 45 34 32 30 37 42 38 36 54
4 5 6 9 8 3 2 3 0 2 3 6 3 8 4 6 7 8 5 7 9 10 5 2 18 32 35 42 48 50 53 53 51 52 64 49 32 26 29 36 36 30 47 63
4 7 5 9 4 12 13 9 8 4 3 5 6 5 5 10 7 9 14 6 10 7 3 14 24 29 38 44 49 54 59 58 55 60 68 51 38 23 25 33 32 42 65 62
6 7 13 12 7 9 4 7 2 2 5 0 2 7 9 4 8 8 6 5 6 8 12 18 29 43 53 59 59 60 63 68 51 64 56 36 35 16 16 22 41 66 59 47
Wind_Direction_500mb
327 333 333 333 335 341 331 340 113 69 172 101 60 161 195 295 290 277 260 221 167 143 135 110 129 152 52 347 146 88 44 109 253 352 347 289 342 19 178 223 203 188 303 285
324 325 331 337 341 351 357 338 220 82 185 167 188 219 245 258 319 304 287 215 132 87 116 112 122 115 19 59 93 150 176 52 309 186 169 135 171 121 106 95 82 214 265 268
309 319 326 331 340 344 345 332 312 74 147 116 145 153 112 307 306 240 311 151 104 113 91 35 139 128 32 77 102 122 114 129 197 249 295 284 258 199 206 233 241 284 254 289
296 301 310 325 332 334 340 359 96 105 107 64 105 131 142 163 337 357 5 152 234 157 130 121 151 149 142 78 138 77 102 189 206 261 245 234 266 268 251 236 256 251 292 285
293 292 296 303 318 326 291 146 163 112 100 64 156 5 174 166 277 264 21 57 356 193 159 187 192 162 197 183 143 109 58 155 188 265 320 241 275 279 261 253 257 256 277 282
301 302 300 299 308 326 181 156 140 124 26 98 173 162 167 181 228 204 246 330 264 231 257 257 272 169 158 164 161 149 153 151 174 277 329 310 270 236 213 240 215 247 271 324
308 313 315 310 332 43 130 138 157 161 154 185 161 167 340 221 327 300 326 22 168 347 108 103 102 78 94 93 67 122 140 124 133 293 307 246 61 205 280 259 278 233 262 258
310 326 328 319 291 48 77 113 145 157 139 157 213 175 289 313 308 250 269 1 326 179 329 140 111 40 133 75 38 50 165 140 136 259 245 314 232 193 184 185 287 229 243 248
293 315 330 320 235 219 188 144 138 143 129 204 156 158 121 189 327 295 284 289 337 177 84 155 179 207 210 189 159 78 88 76 218 167 232 260 243 168 162 157 279 226 217 232
269 293 318 350 336 231 213 203 191 176 183 197 180 177 155 155 145 262 321 339 345 89 187 207 182 202 202 177 192 168 158 162 220 209 239 270 247 162 150 225 257 219 217 223
256 267 279 299 356 291 227 209 205 200 230 225 196 209 212 194 75 301 346 265 55 294 223 232 192 213 200 183 167 179 188 172 191 173 223 262 171 136 197 217 245 251 230 237
250 261 267 274 274 276 245 240 226 223 233 249 220 228 237 243 253 292 327 11 326 24 281 167 304 214 180 216 227 176 206 207 192 195 216 216 192 218 220 268 278 269 257 268
243 253 263 269 267 263 259 248 241 221 257 275 270 259 245 247 249 240 222 260 216 85 61 359 325 260 181 217 230 216 220 170 212 160 234 244 240 235 255 270 271 270 268 272
238 243 248 253 249 239 257 261 190 175 161 298 267 242 235 244 241 234 226 221 185 242 320 313 271 261 200 257 323 267 318 165 189 238 269 268 259 238 254 293 291 270 269 266
238 237 239 243 234 216 199 219 210 195 161 260 284 295 292 242 238 231 224 224 233 238 237 216 234 241 202 204 260 246 201 204 207 248 248 226 237 244 294 296 297 294 277 264
232 235 230 236 228 208 180 185 224 161 144 324 309 315 37 47 273 238 233 229 234 221 205 223 233 240 234 254 261 249 246 253 265 270 301 286 274 292 297 287 294 292 276 262
227 231 223 229 223 195 173 158 147 121 137 221 307 327 299 328 360 203 216 216 214 214 224 228 243 239 202 246 251 252 253 262 273 276 281 285 282 281 287 288 293 280 267 248
234 240 251 238 202 165 176 149 144 143 135 145 299 280 303 328 310 158 189 187 202 225 230 227 226 222 213 249 266 272 260 257 263 268 274 277 288 285 283 281 274 263 240 230
234 262 278 134 142 134 152 171 183 187 169 139 234 256 254 351 21 304 285 202 216 213 232 225 214 221 225 258 287 266 255 257 269 276 275 273 281 288 289 281 271 242 228 229
213 173 137 118 128 130 126 89 156 173 199 203 236 254 262 7 5 6 343 248 266 240 200 193 231 247 258 278 281 281 290 293 295 288 281 275 268 266 274 279 262 246 238 252
163 139 102 123 127 119 149 178 179 171 201 207 217 222 240 266 249 256 275 303 260 265 136 245 237 234 13 340 342 341 315 316 320 307 282 273 267 264 261 260 276 257 250 252
156 135 122 136 150 174 196 204 167 205 215 183 192 206 201 222 209 226 226 252 215 251 356 248 268 118 347 345 342 338 331 324 327 336 314 288 271 263 261 256 253 270 252 240
136 123 139 139 167 197 206 191 198 195 173 169 187 188 198 193 199 229 244 228 236 315 224 234 258 352 348 346 342 338 341 330 330 336 339 312 275 258 254 245 240 256 240 220
145 153 169 211 185 233 202 224 78 107 140 141 233 240 208 190 183 226 229 219 241 236 222 230 100 347 340 345 345 334 335 331 323 326 334 328 290 261 250 238 238 238 215 193
157 164 210 216 233 258 138 60 219 159 182 360 267 253 220 204 241 214 239 210 225 205 219 341 335 338 337 335 335 335 334 328 321 323 333 335 317 281 264 230 232 210 186 180
201 223 243 238 282 246 263 265 263 194 358 312 211 250 237 229 230 207 216 215 206 168 91 333 330 333 337 335 337 337 335 329 319 318 328 329 329 300 268 235 206 186 175 174
226 244 241 243 282 255 239 178 260 226 312 266 56 235 229 323 228 224 216 231 107 50 338 326 341 346 345 341 337 336 333 330 319 302 312 294 296 279 254 213 186 168 167 163
Wind_Speed_850mb
30 31 32 32 30 23 13 4 3 2 24 6 3 5 7 4 9 6 10 4 3 4 5 6 5 7 2 5 4 5 3 5 4 4 3 9 4 1 3 5 5 1 5 14
28 28 29 29 27 25 19 13 2 2 22 6 4 3 4 6 6 6 3 6 1 2 6 6 4 5 4 4 5 8 11 4 3 4 5 4 3 5 7 8 1 12 10 11
29 26 25 24 22 18 16 7 1 4 8 8 8 7 2 4 6 5 4 2 4 5 5 9 7 5 3 4 9 15 9 6 6 5 4 1 8 7 6 5 6 15 22 35
31 28 24 21 18 12 8 4 2 3 3 5 5 2 5 2 5 3 4 3 3 9 7 5 6 5 5 6 11 6 3 5 6 6 8 8 14 17 15 16 19 13 26 25
27 26 24 20 15 10 3 2 4 4 4 2 4 1 3 5 3 3 4 5 8 4 9 11 16 13 8 6 5 5 2 5 4 6 1 6 14 21 20 20 13 20 25 28
18 17 16 13 9 5 3 6 6 3 2 2 4 5 6 7 2 4 4 6 3 5 9 12 5 14 12 14 14 10 7 10 6 7 3 12 15 12 8 6 9 8 10 8
12 11 10 7 4 3 4 5 7 4 4 3 3 3 1 2 4 5 7 4 2 6 19 27 23 28 23 20 17 7 12 9 1 5 5 7 5 3 9 15 18 17 19 16
9 8 7 5 2 1 3 3 4 4 3 2 5 7 3 10 9 5 5 4 6 22 2 4 8 4 6 8 12 4 1 9 5 5 5 11 7 7 7 6 12 16 19 12
7 6 5 4 3 5 3 2 4 4 4 6 3 2 1 1 3 6 3 5 11 16 2 4 11 14 12 12 9 7 9 7 7 6 7 8 3 5 7 8 7 7 19 16
7 6 5 4 2 5 8 6 4 4 2 7 5 2 1 4 2 3 5 14 4 0 4 6 8 10 6 15 15 11 7 5 17 11 11 11 17 14 14 6 7 7 20 19
11 10 8 4 3 3 8 9 9 9 5 8 8 10 8 4 1 3 7 3 5 1 6 6 7 9 12 8 8 13 17 16 9 6 9 17 21 15 14 9 8 12 19 24
11 11 10 7 3 2 4 11 13 12 11 9 8 17 26 20 15 5 6 2 3 4 3 1 2 5 6 7 12 2 10 12 8 18 11 2 33 16 30 16 18 17 19 22
12 12 11 8 4 4 4 7 10 10 9 17 25 26 35 36 33 27 8 4 3 5 9 2 2 7 3 8 11 10 9 8 7 7 15 33 31 31 35 34 39 31 29 29
15 15 13 11 6 3 3 3 2 7 3 4 6 9 11 13 16 21 35 29 12 4 14 6 4 5 7 3 5 7 2 19 12 9 21 16 21 28 17 22 29 35 39 38
14 14 13 15 11 6 4 6 8 9 4 3 13 24 8 17 26 22 22 22 29 16 8 10 7 6 5 4 3 12 11 9 9 15 23 16 20 18 23 33 37 43 47 45
9 10 13 13 10 8 6 5 8 11 10 4 5 10 5 8 5 19 30 39 39 23 13 13 12 22 7 8 16 25 32 44 46 22 26 21 34 51 48 40 43 45 42 40
9 7 7 11 9 9 7 5 15 14 14 2 11 12 5 9 1 6 18 34 25 23 16 14 22 17 16 9 30 41 45 47 57 61 40 50 45 45 45 45 48 52 39 33
9 9 7 6 6 8 14 15 18 14 8 5 4 7 9 3 4 0 3 7 17 16 17 6 13 13 18 16 30 26 38 56 65 63 67 67 63 56 63 65 63 54 39 39
8 5 3 6 9 9 11 16 25 20 6 9 7 4 2 9 7 5 2 5 8 7 10 14 15 14 17 14 22 29 39 45 57 54 53 48 54 64 54 46 50 54 45 41
7 3 5 7 8 24 15 4 10 13 11 11 10 8 3 8 13 5 11 3 5 5 8 5 9 21 39 41 50 51 43 45 52 61 62 59 56 57 68 49 49 53 38 39
7 6 5 18 19 8 5 4 6 8 7 11 8 14 18 7 6 5 5 5 4 5 4 5 4 3 8 29 28 24 21 29 36 37 45 51 59 65 55 54 44 51 65 66
11 11 16 15 7 6 6 5 5 8 6 11 8 8 13 7 10 9 7 6 4 9 2 4 5 6 20 31 32 32 35 38 42 44 41 45 46 47 55 58 55 49 54 58
14 6 6 5 4 6 9 11 7 6 10 10 8 6 8 11 13 9 6 7 9 3 5 5 3 15 35 43 45 50 50 45 47 51 51 41 35 34 39 44 46 44 45 43
5 6 7 6 6 8 7 3 3 4 7 3 5 6 10 11 11 10 8 8 4 5 7 6 5 29 39 47 48 47 57 54 48 50 60 45 34 32 30 37 42 38 36 54
4 5 6 9 8 3 2 3 0 2 3 6 3 8 4 6 7 8 5 7 9 10 5 2 18 32 35 42 48 50 53 53 51 52 64 49 32 26 29 36 36 30 47 63
4 7 5 9 4 12 13 9 8 4 3 5 6 5 5 10 7 9 14 6 10 7 3 14 24 29 38 44 49 54 59 58 55 60 68 51 38 23 25 33 32 42 65 62
6 7 13 12 7 9 4 7 2 2 5 0 2 7 9 4 8 8 6 5 6 8 12 18 29 43 53 59 59 60 63 68 51 64 56 36 35 16 16 22 41 66 59 47
Wind_Direction_850mb
327 333 333 333 335 341 331 340 113 69 172 101 60 161 195 295 290 277 260 221 167 143 135 110 129 152 52 347 146 88 44 109 253 352 347 289 342 19 178 223 203 188 303 285
324 325 331 337 341 351 357 338 220 82 185 167 188 219 245 258 319 304 287 215 132 87 116 112 122 115 19 59 93 150 176 52 309 186 169 135 171 121 106 95 82 214 265 268
309 319 326 331 340 344 345 332 312 74 147 116 145 153 112 307 306 240 311 151 104 113 91 35 139 128 32 77 102 122 114 129 197 249 295 284 258 199 206 233 241 284 254 289
296 301 310 325 332 334 340 359 96 105 107 64 105 131 142 163 337 357 5 152 234 157 130 121 151 149 142 78 138 77 102 189 206 261 245 234 266 268 251 236 256 251 292 285
293 292 296 303 318 326 291 146 163 112 100 64 156 5 174 166 277 264 21 57 356 193 159 187 192 162 197 183 143 109 58 155 188 265 320 241 275 279 261 253 257 256 277 282
301 302 300 299 308 326 181 156 140 124 26 98 173 162 167 181 228 204 246 330 264 231 257 257 272 169 158 164 161 149 153 151 174 277 329 310 270 236 213 240 215 247 271 324
308 313 315 310 332 43 130 138 157 161 154 185 161 167 340 221 327 300 326 22 168 347 108 103 102 78 94 93 67 122 140 124 133 293 307 246 61 205 280 259 278 233 262 258
310 326 328 319 291 48 77 113 145 157 139 157 213 175 289 313 308 250 269 1 326 179 329 140 111 40 133 75 38 50 165 140 136 259 245 314 232 193 184 185 287 229 243 248
293 315 330 320 235 219 188 144 138 143 129 204 156 158 121 189 327 295 284 289 337 177 84 155 179 207 210 189 159 78 88 76 218 167 232 260 243 168 162 157 279 226 217 232
269 293 318 350 336 231 213 203 191 176 183 197 180 177 155 155 145 262 321 339 345 89 187 207 182 202 202 177 192 168 158 162 220 209 239 270 247 162 150 225 257 219 217 223
256 267 279 299 356 291 227 209 205 200 230 225 196 209 212 194 75 301 346 265 55 294 223 232 192 213 200 183 167 179 188 172 191 173 223 262 171 136 197 217 245 251 230 237
250 261 267 274 274 276 245 240 226 223 233 249 220 228 237 243 253 292 327 11 326 24 281 167 304 214 180 216 227 176 206 207 192 195 216 216 192 218 220 268 278 269 257 268
243 253 263 269 267 263 259 248 241 221 257 275 270 259 245 247 249 240 222 260 216 85 61 359 325 260 181 217 230 216 220 170 212 160 234 244 240 235 255 270 271 270 268 272
238 243 248 253 249 239 257 261 190 175 161 298 267 242 235 244 241 234 226 221 185 242 320 313 271 261 200 257 323 267 318 165 189 238 269 268 259 238 254 293 291 270 269 266
238 237 239 243 234 216 199 219 210 195 161 260 284 295 292 242 238 231 224 224 233 238 237 216 234 241 202 204 260 246 201 204 207 248 248 226 237 244 294 296 297 294 277 264
232 235 230 236 228 208 180 185 224 161 144 324 309 315 37 47 273 238 233 229 234 221 205 223 233 240 234 254 261 249 246 253 265 270 301 286 274 292 297 287 294 292 276 262
227 231 223 229 223 195 173 158 147 121 137 221 307 327 299 328 360 203 216 216 214 214 224 228 243 239 202 246 251 252 253 262 273 276 281 285 282 281 287 288 293 280 267 248
234 240 251 238 202 165 176 149 144 143 135 145 299 280 303 328 310 158 189 187 202 225 230 227 226 222 213 249 266 272 260 257 263 268 274 277 288 285 283 281 274 263 240 230
234 262 278 134 142 134 152 171 183 187 169 139 234 256 254 351 21 304 285 202 216 213 232 225 214 221 225 258 287 266 255 257 269 276 275 273 281 288 289 281 271 242 228 229
213 173 137 118 128 130 126 89 156 173 199 203 236 254 262 7 5 6 343 248 266 240 200 193 231 247 258 278 281 281 290 293 295 288 281 275 268 266 274 279 262 246 238 252
163 139 102 123 127 119 149 178 179 171 201 207 217 222 240 266 249 256 275 303 260 265 136 245 237 234 13 340 342 341 315 316 320 307 282 273 267 264 261 260 276 257 250 252
156 135 122 136 150 174 196 204 167 205 215 183 192 206 201 222 209 226 226 252 215 251 356 248 268 118 347 345 342 338 331 324 327 336 314 288 271 263 261 256 253 270 252 240
136 123 139 139 167 197 206 191 198 195 173 169 187 188 198 193 199 229 244 228 236 315 224 234 258 352 348 346 342 338 341 330 330 336 339 312 275 258 254 245 240 256 240 220
145 153 169 211 185 233 202 224 78 107 140 141 233 240 208 190 183 226 229 219 241 236 222 230 100 347 340 345 345 334 335 331 323 326 334 328 290 261 250 238 238 238 215 193
157 164 210 216 233 258 138 60 219 159 182 360 267 253 220 204 241 214 239 210 225 205 219 341 335 338 337 335 335 335 334 328 321 323 333 335 317 281 264 230 232 210 186 180
201 223 243 238 282 246 263 265 263 194 358 312 211 250 237 229 230 207 216 215 206 168 91 333 330 333 337 335 337 337 335 329 319 318 328 329 329 300 268 235 206 186 175 174
226 244 241 243 282 255 239 178 260 226 312 266 56 235 229 323 228 224 216 231 107 50 338 326 341 346 345 341 337 336 333 330 319 302 312 294 296 279 254 213 186 168 167 163